Regional Weather Roundup
Issued by NWS

Home | Current Version | Previous Version | Text Only | Print | Product List | Glossary On
Versions: 1 2 3 4 5 6 7 8 9 10 11 12 13 14 15 16 17 18 19 20 21 22 23 24 25 26 27 28 29 30 31 32 33 34 35 36 37 38 39 40 41 42 43 44 45 46 47 48 49 50
000
ASUS43 KTOP 290308
RWRKS

WEATHER ROUNDUP FOR KANSAS
NATIONAL WEATHER SERVICE GOODLAND KS
900 PM CST FRI NOV 28 2014

NOTE:  "FAIR" INDICATES FEW OR NO CLOUDS BELOW 12,000 FEET WITH NO
SIGNIFICANT WEATHER AND/OR OBSTRUCTIONS TO VISIBILITY.

KSZ001>006-013>018-027>032-041>047-290400-
NORTHWEST KANSAS

CITY           SKY/WX    TMP DP  RH WIND       PRES   REMARKS
GOODLAND       CLOUDY    47  18  31 W3        29.75F
HAYS           CLOUDY    50  25  37 CALM      29.72F
HILL CITY      MOCLDY    45  20  36 W6        29.71S
RUSSELL        CLOUDY    47  30  51 S10       29.71F
$$

KSZ061>065-074>080-084>089-290400-
SOUTHWEST KANSAS

CITY           SKY/WX    TMP DP  RH WIND       PRES   REMARKS
DODGE CITY     CLOUDY    54  29  38 S13       29.75F
ELKHART          N/A     57  12  17 W10         N/A
GARDEN CITY    CLOUDY    48  25  40 S6        29.75F
GREAT BEND     MOCLDY    48  28  46 SW12      29.75F
LIBERAL        CLOUDY    50  23  34 S6        29.77F
PRATT          PTCLDY    48  32  53 S9        29.76F
$$

KSZ066>073-081>083-090>101-290400-
SOUTHEAST KANSAS

CITY           SKY/WX    TMP DP  RH WIND       PRES   REMARKS
CHANUTE        CLOUDY    54  41  61 S13       29.83S
COFFEYVILLE    MOCLDY    55  42  61 S15       29.85F
HUTCHINSON     PTCLDY    48  35  60 SE3       29.77S
MEDICINE LODGE   N/A     49  38  65 S7        29.77F
NEWTON         PTCLDY    52  36  54 S13       29.80S
PARSONS        CLOUDY    53  41  63 S8        29.85F
WICHITA INTL   MOCLDY    50  38  63 S13       29.78F
WICHITA JABRA  PTCLDY    54  40  59 S20       29.78F
WICHITA MCCONL PTCLDY    52  41  66 S13       29.79F
WINFIELD       PTCLDY    51  39  63 S10       29.82F
$$

KSZ007>012-019>026-033>040-048>060-102>105-290400-
NORTHEAST KANSAS

CITY           SKY/WX    TMP DP  RH WIND       PRES   REMARKS
CONCORDIA      CLOUDY    52  35  52 S21G29    29.67F
EMPORIA        CLOUDY    51  37  58 S13       29.78F
LAWRENCE       CLOUDY    50  35  56 S7        29.77F
MANHATTAN      CLOUDY    53  37  54 SW13      29.73F
MARYSVILLE     CLOUDY    54  36  50 S12       29.69S
OLATHE IND     CLOUDY    49  36  61 S12       29.78F
OLATHE EXE     CLOUDY    52  36  54 S13       29.77F
SALINA         CLOUDY    50  35  56 S12       29.73F
TOPEKA BILLARD CLOUDY    55  36  48 S7        29.75F
TOPEKA FORBES  CLOUDY    54  36  50 S10       29.75F
$$


USA.gov is the U.S. government's official web portal to all federal, state and local government web resources and services.